Date String (YYYY-MM-DD hh:mm:ss) UTC,Instrument flags,Ambient pressure (hPa),Sample flow (lpm),Bypass flow (lpm),Sample temperature (°C),Ambient temperature (°C),ASC tube jacket temperature (°C),LED temperature (°C),Box temperature (°C),Sample RH (%),Span deviation,Mass concentration (μg/m³),Mass concentration (μg/m³),Mass concentration (μg/m³)
DateTimeUTC,F1_M11,P_M11,Q1_M11,Q2_M11,T1_M11,T2_M11,T3_M11,T4_M11,T5_M11,U1_M11,ZSPAN_M11,X2_M11,X0_M11,X1_M11
2021-10-05 23:00:00,,0829.2,5.00,0.00,29.0,25.9,00.0,38.1,30.5,12.9,0000.0,0005.34,0023.61,0003.59
2021-10-05 23:01:00,,0828.9,5.00,0.00,29.0,26.3,00.0,38.1,30.6,12.8,0000.0,0005.30,0023.59,0003.58
2021-10-05 23:02:00,,0829.1,4.99,0.00,29.0,26.8,00.0,38.1,30.7,12.8,0000.0,0005.30,0024.42,0003.58
2021-10-05 23:03:00,,0829.1,4.99,0.00,29.0,27.2,00.0,38.1,30.8,13.0,0000.0,0005.31,0025.86,0003.58
2021-10-05 23:04:00,,0828.8,5.01,0.00,29.1,27.6,00.0,38.1,31.0,13.0,0000.0,0005.37,0025.47,0003.60
2021-10-05 23:05:00,,0828.6,4.99,0.00,29.1,28.0,00.0,38.1,31.1,13.0,0000.0,0005.31,0024.84,0003.59
2021-10-05 23:06:00,,0828.8,5.01,0.00,29.2,28.2,00.0,38.1,31.2,12.8,0000.0,0005.25,0022.85,0003.59
2021-10-05 23:07:00,,0828.7,5.00,0.00,29.3,28.4,00.0,38.2,31.2,12.8,0000.0,0005.17,0022.28,0003.58
2021-10-05 23:08:00,,0828.7,5.01,0.00,29.3,28.6,00.0,38.2,31.3,12.9,0000.0,0005.17,0022.66,0003.57
2021-10-05 23:09:00,,0829.2,4.99,0.00,29.4,28.8,00.0,38.2,31.4,12.8,0000.0,0005.23,0023.63,0003.58
2021-10-05 23:10:00,,0829.2,5.02,0.00,29.5,28.1,00.0,38.2,31.3,12.7,0000.0,0005.28,0023.26,0003.58
2021-10-05 23:11:00,,0828.7,4.99,0.00,29.3,26.2,00.0,38.2,30.7,12.8,0000.0,0005.29,0020.96,0003.59
2021-10-05 23:12:00,,0828.7,5.00,0.00,29.2,25.7,00.0,38.2,30.5,13.3,0000.0,0005.30,0020.30,0003.59
2021-10-05 23:13:00,,0828.5,4.99,0.00,29.1,26.1,00.0,38.2,30.6,13.0,0000.3,0005.29,0020.39,0003.59
2021-10-05 23:14:00,,0828.5,5.00,0.00,29.1,26.6,00.0,38.2,30.7,13.0,0000.3,0005.29,0020.70,0003.59
2021-10-05 23:15:00,,0828.7,5.00,0.00,29.1,27.1,00.0,38.2,30.9,13.1,0000.0,0005.25,0022.15,0003.59
2021-10-05 23:16:00,,0828.6,5.00,0.00,29.2,27.5,00.0,38.2,31.0,12.9,0000.0,0005.27,0023.46,0003.59
2021-10-05 23:17:00,,0828.5,5.00,0.00,29.2,27.9,00.0,38.2,31.1,13.2,0000.0,0005.35,0025.81,0003.61
2021-10-05 23:18:00,,0828.5,5.00,0.00,29.3,28.1,00.0,38.2,31.2,13.1,0000.4,0005.40,0027.38,0003.61
2021-10-05 23:19:00,,0828.5,5.00,0.00,29.3,28.4,00.0,38.2,31.3,12.9,0000.1,0005.41,0028.27,0003.61
2021-10-05 23:20:00,,0828.4,4.99,0.00,29.4,28.5,00.0,38.2,31.3,12.9,-000.3,0005.42,0028.36,0003.60
2021-10-05 23:21:00,,0828.5,5.01,0.00,29.4,27.2,00.0,38.3,31.0,12.8,-000.1,0005.38,0028.47,0003.61
2021-10-05 23:22:00,,0828.5,5.00,0.00,29.2,25.6,00.0,38.2,30.5,12.9,-000.7,0005.37,0028.50,0003.61
2021-10-05 23:23:00,,0828.4,5.00,0.00,29.1,25.7,00.0,38.2,30.5,13.1,-000.5,0005.35,0028.02,0003.60
2021-10-05 23:24:00,,0828.5,4.99,0.00,29.1,26.1,00.0,38.2,30.6,13.5,-000.0,0005.37,0027.13,0003.59
2021-10-05 23:25:00,,0828.5,5.00,0.00,29.0,26.7,00.0,38.2,30.7,13.4,-000.0,0005.36,0025.51,0003.58
2021-10-05 23:26:00,,0828.4,5.01,0.00,29.1,27.1,00.0,38.1,30.8,13.2,0000.1,0005.34,0024.06,0003.58
2021-10-05 23:27:00,,0828.4,4.99,0.00,29.1,27.5,00.0,38.1,30.9,13.3,0000.3,0005.31,0024.15,0003.58
2021-10-05 23:28:00,,0828.4,4.99,0.00,29.2,27.8,00.0,38.2,31.0,13.3,0000.2,0005.25,0023.17,0003.57
2021-10-05 23:29:00,,0828.4,4.99,0.00,29.2,28.1,00.0,38.2,31.1,13.3,0000.0,0005.28,0022.71,0003.57
2021-10-05 23:30:00,,0828.5,5.00,0.00,29.3,28.4,00.0,38.2,31.2,13.2,0000.0,0005.31,0021.44,0003.56
2021-10-05 23:31:00,,0828.5,4.99,0.00,29.4,28.3,00.0,38.2,31.2,13.3,0000.0,0005.31,0020.32,0003.57
2021-10-05 23:32:00,,0828.5,5.01,0.00,29.3,26.5,00.0,38.2,30.7,13.5,0000.0,0005.33,0019.53,0003.57
2021-10-05 23:33:00,,0828.4,5.00,0.00,29.1,25.4,00.0,38.2,30.4,13.3,0001.2,0005.32,0019.30,0003.56
2021-10-05 23:34:00,,0828.4,5.00,0.00,29.0,25.7,00.0,38.2,30.5,13.2,0002.3,0005.33,0020.96,0003.56
2021-10-05 23:35:00,,0828.4,5.01,0.00,29.0,26.2,00.0,38.1,30.5,13.2,0001.3,0005.31,0022.28,0003.57
2021-10-05 23:36:00,,0828.3,4.99,0.00,29.0,26.7,00.0,38.1,30.7,13.2,0000.6,0005.32,0025.95,0003.57
2021-10-05 23:37:00,,0828.3,5.01,0.00,29.0,27.2,00.0,38.1,30.8,13.1,0000.5,0005.37,0026.56,0003.56
2021-10-05 23:38:00,,0828.3,5.00,0.00,29.1,27.6,00.0,38.1,30.9,12.9,0000.4,0005.38,0026.11,0003.56
2021-10-05 23:39:00,,0828.3,5.00,0.00,29.1,27.9,00.0,38.1,31.0,13.2,0000.0,0005.39,0025.01,0003.55
2021-10-05 23:40:00,,0828.3,5.00,0.00,29.2,28.1,00.0,38.1,31.1,13.6,-000.2,0005.36,0024.79,0003.55
2021-10-05 23:41:00,,0828.3,5.00,0.00,29.3,28.4,00.0,38.2,31.2,13.4,0000.0,0005.31,0025.64,0003.55
2021-10-05 23:42:00,,0828.3,5.01,0.00,29.3,27.7,00.0,38.2,31.0,13.6,0000.0,0005.30,0026.93,0003.54
2021-10-05 23:43:00,,0828.3,4.99,0.00,29.1,25.7,00.0,38.1,30.4,13.6,-000.1,0005.30,0028.12,0003.54
2021-10-05 23:44:00,,0828.3,5.01,0.00,29.0,25.3,00.0,38.1,30.3,13.6,0000.0,0005.35,0030.18,0003.55
2021-10-05 23:45:00,,0828.4,4.99,0.00,28.9,25.8,00.0,38.1,30.4,13.8,0000.0,0005.36,0029.40,0003.56
2021-10-05 23:46:00,,0828.2,4.99,0.00,28.9,26.3,00.0,38.1,30.5,13.7,0000.0,0005.34,0029.05,0003.56
2021-10-05 23:47:00,,0828.2,5.00,0.00,28.9,26.8,00.0,38.0,30.6,13.8,0000.0,0005.38,0026.58,0003.57
2021-10-05 23:48:00,,0828.2,5.00,0.00,29.0,27.2,00.0,38.0,30.8,13.8,0000.0,0005.34,0026.24,0003.58
2021-10-05 23:49:00,,0828.2,5.01,0.00,29.0,27.6,00.0,38.0,30.9,13.8,0000.0,0005.36,0027.08,0003.59
2021-10-05 23:50:00,,0828.2,5.00,0.00,29.1,27.9,00.0,38.1,31.0,13.5,0000.0,0005.44,0027.99,0003.60
2021-10-05 23:51:00,,0828.2,5.00,0.00,29.1,28.1,00.0,38.1,31.1,13.6,0000.4,0005.47,0027.84,0003.60
2021-10-05 23:52:00,,0828.3,5.00,0.00,29.2,28.3,00.0,38.1,31.1,13.5,0000.0,0005.52,0027.49,0003.60
2021-10-05 23:53:00,,0828.2,4.99,0.00,29.2,26.9,00.0,38.1,30.8,13.6,0001.6,0005.49,0027.08,0003.59
2021-10-05 23:54:00,,0828.2,5.01,0.00,29.0,25.4,00.0,38.1,30.3,13.8,0000.0,0005.53,0026.24,0003.60
2021-10-05 23:55:00,,0828.2,5.00,0.00,28.9,25.5,00.0,38.1,30.3,13.8,0000.0,0005.47,0024.70,0003.60
2021-10-05 23:56:00,,0828.3,5.00,0.00,28.9,25.9,00.0,38.0,30.4,13.8,0000.3,0005.41,0023.79,0003.59
2021-10-05 23:57:00,,0828.2,5.01,0.00,28.8,26.4,00.0,38.0,30.5,13.7,0001.0,0005.41,0022.81,0003.59
2021-10-05 23:58:00,,0828.3,4.99,0.00,28.9,26.9,00.0,38.0,30.7,13.7,0001.6,0005.44,0021.56,0003.58
2021-10-05 23:59:00,,0828.3,5.01,0.00,28.9,27.3,00.0,38.0,30.8,13.7,0002.1,0005.50,0020.45,0003.58
